Location: Novokuznetsk
(53.7500°N, 87.1000°E)
Time: 22:25:22
(UTC+06:00)

ISS - Visible Passes

Search period start: 21 September 2023 00:00
Search period end: 01 October 2023 00:00
Orbit: 414 x 422 km, 51.6° (Epoch: 21 September)

Date Brightness Start Highest point End Pass type
(mag) Time Alt. Az. Time Alt. Az. Time Alt. Az.
21 Sep -3.8 20:12:47 10° W 20:16:06 61° S 20:16:21 58° SSE visible
22 Sep -3.6 19:24:54 10° WSW 19:28:12 59° S 19:30:12 22° E visible
22 Sep -1.7 21:01:33 10° W 21:03:07 24° WSW 21:03:07 24° WSW visible
23 Sep -3.4 18:37:02 10° WSW 18:40:18 54° S 18:43:35 10° E visible
23 Sep -3.5 20:13:37 10° W 20:16:54 54° S 20:16:56 54° S visible
24 Sep -3.6 19:25:39 10° W 19:28:57 59° S 19:30:42 25° ESE visible
24 Sep -1.3 21:02:26 10° W 21:03:37 18° WSW 21:03:37 18° WSW visible
25 Sep -3.5 18:37:40 10° W 18:40:58 61° S 18:44:17 10° E visible
25 Sep -2.9 20:14:21 10° W 20:17:23 38° SSW 20:17:23 38° SSW visible
26 Sep -3.2 19:26:18 10° W 19:29:31 46° SSW 19:31:07 25° SE visible
26 Sep -0.9 21:03:28 10° WSW 21:04:02 13° WSW 21:04:02 13° WSW visible
27 Sep -3.3 18:38:12 10° W 18:41:30 54° S 18:44:47 10° ESE visible
27 Sep -2.0 20:15:07 10° W 20:17:46 23° SSW 20:17:46 23° SSW visible
28 Sep -2.4 19:26:53 10° W 19:29:52 30° SSW 19:31:31 20° SSE visible
29 Sep -2.7 18:38:40 10° W 18:41:50 39° SSW 18:44:58 10° SE visible
29 Sep -1.2 20:16:20 10° WSW 20:17:56 13° SW 20:18:12 13° SSW visible
30 Sep -1.5 19:27:37 10° WSW 19:29:58 18° SSW 19:32:00 11° S visible
